Location: *
(1.3500°S, 147.5000°W)
Time: 00:24:30
(UTC+00:00)

Cosmos 407 Rocket - Pass Details

Date: 07 April 2020
Orbit: 743 x 787 km, 74.0° (Epoch: 06 June)

Event Time Altitude Azimuth Distance (km) Brightness Sun altitude
Rises 05:02:07 0° 199° (SSW) 3,241 6.9 -17.5°
Reaches altitude 10° 05:04:32 10° 202° (SSW) 2,305 6.2 -18.1°
Maximum altitude 05:09:42 62° 282° (WNW) 852 4.0 -19.4°
Drops below altitude 10° 05:14:46 10° 2° (N) 2,266 6.0 -20.7°
Sets 05:17:08 0° 6° (N) 3,182 6.7 -21.3°
